Погода в Дормидонтовке

Россия / Хабаровский край     47°46′21″N   134°53′37″E
темп.,
°C
ветер,
м/с
пор.,
м/с
влажн.,
%
обл.,
%
осадки,
мм/ч
давл.,
гПа
погр.,
м
29 июня, ср
ср2901:00+17зюз229291 0.0 100023
04:00+15юз22954 0.0 100117
07:00+17ююз11920 0.0 100288
10:00+22ссз11790 0.0 1003499
13:00+25ссв227324 0.0 1003968
16:00+26с22660 0.1 10031090
19:00+25с24815 0.0 1003198
22:00+20всв118721 0.0 100511
30 июня, чт
чт3001:00+18в118949 0.0 100711
04:00+17вюв119214 0.0 100811
07:00+19ююв119198 0.0 100962
10:00+23всв1281100 0.0 1010477
13:00+25ссв2272100 0.0 1010793
16:00+27ссв2267100 0.0 1009856
19:00+25ссз1179100 0.1 100915
22:00+20юз339112 0.9 101139
1 июля, пт
пт101:00+18юз39961 0.1 1012187
04:00+17юз22955 0.1 101320
07:00+19юз11925 0.0 1014101
10:00+23ююз12781 0.0 1013606
13:00+26ссв226820 0.0 10121010
16:00+26с2174100 0.1 1011679
19:00+26ссз1282100 0.3 1010177
22:00+22зюз2286100 0.6 101118
2 июля, сб
сб201:00+19зюз11945 0.0 101111
04:00+19ююз119581 0.0 101016
07:00+21ю1192100 0.0 101098
10:00+23юз1185100 0.0 1010472
13:00+26зюз357349 0.4 10091163
16:00+27з457171 0.6 10071067
19:00+26з3584100 0.3 1007194
22:00+21юз3392100 0.5 100735
3 июля, вс
вс301:00+21ю2294100 0.0 100726
04:00+20ююз229694 0.8 100728
07:00+21ююз2396100 1.0 1007105
10:00+22ююз119584 1.2 1007103
13:00+26ююз127495 2.3 1006906
16:00+26юз117948 5.9 1005707
19:00+25ю2388100 4.3 100564
22:00+22ююз2293100 4.5 100529